• In Belgium
  • List of Countries
  • For 7 days
  • Water Temperature
  • Satellite Maps
  • Weather Map
  • Weather Widgets
  • user-avatar
    Login

    Hourly Weather Yerevan

    Today, 19 October, Friday

    Time Temperature Precipitation Wind Pressure Humidity
    00:00 +14°C° 0 mm 1 mps 692 mmHg 59%
    01:00 +14°C° 0 mm 1 mps 692 mmHg 61%
    02:00 +13°C° 0 mm 1 mps 692 mmHg 64%
    03:00 +13°C° 0 mm 1 mps 692 mmHg 65%
    04:00 +13°C° 0 mm 1 mps 692 mmHg 66%
    05:00 +13°C° 0 mm 1 mps 692 mmHg 67%
    06:00 +12°C° 0 mm 1 mps 692 mmHg 68%
    07:00 +15°C° 0 mm 1 mps 692 mmHg 58%
    08:00 +18°C° 0 mm 1 mps 693 mmHg 49%
    09:00 +20°C° 0 mm 1 mps 693 mmHg 39%
    10:00 +21°C° 0 mm 1 mps 693 mmHg 35%
    11:00 +22°C° 0 mm 1 mps 693 mmHg 32%
    12:00 +23°C° 0 mm 2 mps 693 mmHg 28%
    13:00 +24°C° 0 mm 2 mps 692 mmHg 28%
    14:00 +24°C° 0 mm 2 mps 692 mmHg 27%
    15:00 +24°C° 0 mm 2 mps 692 mmHg 27%
    16:00 +21°C° 0 mm 2 mps 692 mmHg 31%
    17:00 +20°C° 0 mm 1 mps 691 mmHg 36%
    18:00 +18°C° 0 mm 1 mps 691 mmHg 41%
    19:00 +18°C° 0 mm 1 mps 691 mmHg 43%
    20:00 +16°C° 0 mm 1 mps 691 mmHg 44%
    21:00 +16°C° 0 mm 1 mps 692 mmHg 46%
    22:00 +16°C° 0 mm 1 mps 692 mmHg 47%
    23:00 +15°C° 0 mm 1 mps 692 mmHg 48%

    Tomorrow, 20 October, Saturday

    Time Temperature Precipitation Wind Pressure Humidity
    00:00 +15°C° 0 mm 1 mps 692 mmHg 48%
    01:00 +15°C° 0 mm 1 mps 691 mmHg 48%
    02:00 +14°C° 0 mm 1 mps 691 mmHg 48%
    03:00 +14°C° 0 mm 1 mps 691 mmHg 48%
    04:00 +14°C° 0.1 mm 1 mps 691 mmHg 49%
    05:00 +14°C° 0.1 mm 1 mps 691 mmHg 50%
    06:00 +13°C° 0.1 mm 1 mps 691 mmHg 51%
    07:00 +15°C° 0 mm 1 mps 691 mmHg 47%
    08:00 +19°C° 0 mm 1 mps 692 mmHg 44%
    09:00 +20°C° 0 mm 2 mps 692 mmHg 41%
    10:00 +21°C° 0 mm 2 mps 692 mmHg 39%
    11:00 +23°C° 0 mm 2 mps 692 mmHg 37%
    12:00 +24°C° 0 mm 2 mps 691 mmHg 35%
    13:00 +24°C° 0.1 mm 2 mps 691 mmHg 34%
    14:00 +24°C° 0.1 mm 2 mps 691 mmHg 34%
    15:00 +24°C° 0.1 mm 2 mps 690 mmHg 33%
    16:00 +23°C° 0.1 mm 2 mps 690 mmHg 38%
    17:00 +20°C° 0.1 mm 2 mps 690 mmHg 42%
    18:00 +19°C° 0.1 mm 1 mps 690 mmHg 46%
    19:00 +19°C° 0.1 mm 1 mps 690 mmHg 47%
    20:00 +18°C° 0.1 mm 1 mps 690 mmHg 48%
    21:00 +18°C° 0.1 mm 1 mps 690 mmHg 49%
    22:00 +18°C° 0.1 mm 1 mps 690 mmHg 50%
    23:00 +16°C° 0.1 mm 1 mps 690 mmHg 51%

    Day after tomorrow, 21 October, Sunday

    Time Temperature Precipitation Wind Pressure Humidity
    00:00 +16°C° 0.1 mm 1 mps 689 mmHg 52%
    01:00 +16°C° 0 mm 1 mps 689 mmHg 53%
    02:00 +15°C° 0 mm 1 mps 689 mmHg 54%
    03:00 +15°C° 0 mm 1 mps 689 mmHg 55%
    04:00 +15°C° 0.1 mm 1 mps 689 mmHg 56%
    05:00 +15°C° 0.1 mm 1 mps 689 mmHg 57%
    06:00 +15°C° 0.1 mm 1 mps 689 mmHg 57%
    07:00 +16°C° 0.1 mm 1 mps 689 mmHg 53%
    08:00 +18°C° 0.1 mm 2 mps 689 mmHg 48%
    09:00 +20°C° 0.1 mm 2 mps 690 mmHg 44%
    10:00 +21°C° 0.1 mm 2 mps 690 mmHg 41%
    11:00 +21°C° 0.1 mm 2 mps 689 mmHg 39%
    12:00 +22°C° 0.1 mm 3 mps 689 mmHg 37%
    13:00 +23°C° 0.1 mm 2 mps 689 mmHg 37%
    14:00 +23°C° 0.1 mm 2 mps 689 mmHg 38%
    15:00 +23°C° 0.1 mm 2 mps 688 mmHg 38%
    16:00 +21°C° 0.2 mm 2 mps 688 mmHg 42%
    17:00 +19°C° 0.2 mm 2 mps 688 mmHg 45%
    18:00 +18°C° 0.2 mm 2 mps 688 mmHg 49%
    19:00 +18°C° 0.1 mm 2 mps 688 mmHg 51%
    20:00 +18°C° 0.1 mm 1 mps 688 mmHg 53%
    21:00 +16°C° 0.1 mm 1 mps 688 mmHg 54%
    22:00 +16°C° 0 mm 1 mps 688 mmHg 56%
    23:00 +16°C° 0 mm 1 mps 688 mmHg 58%

    22 October, Monday

    Time Temperature Precipitation Wind Pressure Humidity
    00:00 +16°C° 0 mm 1 mps 688 mmHg 60%
    01:00 +15°C° 0.1 mm 1 mps 688 mmHg 62%
    02:00 +15°C° 0.1 mm 1 mps 688 mmHg 65%
    03:00 +15°C° 0.1 mm 1 mps 688 mmHg 67%
    04:00 +15°C° 0.1 mm 1 mps 688 mmHg 69%
    05:00 +15°C° 0.1 mm 1 mps 688 mmHg 70%
    06:00 +14°C° 0.1 mm 1 mps 688 mmHg 71%
    07:00 +16°C° 0 mm 2 mps 689 mmHg 67%
    08:00 +17°C° 0 mm 2 mps 689 mmHg 62%
    09:00 +18°C° 0 mm 2 mps 689 mmHg 57%
    10:00 +19°C° 0 mm 2 mps 689 mmHg 53%
    11:00 +21°C° 0 mm 3 mps 689 mmHg 49%
    12:00 +22°C° 0 mm 3 mps 689 mmHg 45%
    13:00 +22°C° 0 mm 3 mps 689 mmHg 44%
    14:00 +22°C° 0 mm 3 mps 689 mmHg 43%
    15:00 +22°C° 0 mm 3 mps 688 mmHg 41%
    16:00 +21°C° 0 mm 3 mps 688 mmHg 46%
    17:00 +19°C° 0 mm 2 mps 688 mmHg 51%
    18:00 +18°C° 0 mm 2 mps 688 mmHg 55%
    19:00 +17°C° 0 mm 2 mps 689 mmHg 56%
    20:00 +17°C° 0 mm 2 mps 689 mmHg 57%
    21:00 +16°C° 0 mm 2 mps 689 mmHg 58%
    22:00 +16°C° 0 mm 2 mps 689 mmHg 59%
    23:00 +16°C° 0 mm 2 mps 689 mmHg 60%

    23 October, Tuesday

    Time Temperature Precipitation Wind Pressure Humidity
    00:00 +15°C° 0 mm 2 mps 689 mmHg 60%
    01:00 +15°C° 0 mm 2 mps 689 mmHg 61%
    02:00 +15°C° 0 mm 2 mps 689 mmHg 62%
    03:00 +14°C° 0 mm 2 mps 689 mmHg 63%
    04:00 +14°C° 0 mm 2 mps 690 mmHg 64%
    05:00 +14°C° 0 mm 2 mps 690 mmHg 64%
    06:00 +14°C° 0 mm 2 mps 690 mmHg 64%
    07:00 +15°C° 0 mm 2 mps 690 mmHg 59%
    08:00 +17°C° 0 mm 2 mps 691 mmHg 53%
    09:00 +19°C° 0 mm 3 mps 691 mmHg 47%
    10:00 +20°C° 0 mm 3 mps 691 mmHg 44%
    11:00 +21°C° 0 mm 3 mps 691 mmHg 42%
    12:00 +22°C° 0 mm 3 mps 691 mmHg 39%
    13:00 +22°C° 0.2 mm 3 mps 690 mmHg 41%
    14:00 +21°C° 0.2 mm 3 mps 690 mmHg 43%
    15:00 +21°C° 0.2 mm 3 mps 690 mmHg 45%
    16:00 +20°C° 0.3 mm 2 mps 690 mmHg 50%
    17:00 +18°C° 0.3 mm 2 mps 690 mmHg 55%
    18:00 +17°C° 0.3 mm 2 mps 690 mmHg 59%
    19:00 +17°C° 0.3 mm 2 mps 690 mmHg 62%
    20:00 +16°C° 0.3 mm 2 mps 690 mmHg 66%
    21:00 +16°C° 0.3 mm 2 mps 690 mmHg 69%
    22:00 +16°C° 0.1 mm 2 mps 690 mmHg 70%
    23:00 +15°C° 0.1 mm 2 mps 690 mmHg 70%

    24 October, Wednesday

    Time Temperature Precipitation Wind Pressure Humidity
    00:00 +15°C° 0.1 mm 2 mps 690 mmHg 71%
    01:00 +15°C° 0 mm 2 mps 690 mmHg 72%
    02:00 +15°C° 0 mm 2 mps 689 mmHg 73%
    03:00 +14°C° 0 mm 2 mps 689 mmHg 73%
    04:00 +14°C° 0 mm 2 mps 689 mmHg 74%
    05:00 +14°C° 0 mm 2 mps 689 mmHg 74%
    06:00 +14°C° 0 mm 2 mps 689 mmHg 74%
    07:00 +16°C° 0 mm 2 mps 689 mmHg 68%
    08:00 +17°C° 0 mm 3 mps 689 mmHg 61%
    09:00 +19°C° 0 mm 3 mps 690 mmHg 54%
    10:00 +20°C° 0 mm 3 mps 689 mmHg 51%
    11:00 +21°C° 0 mm 4 mps 689 mmHg 48%
    12:00 +22°C° 0 mm 4 mps 688 mmHg 45%
    13:00 +22°C° 0 mm 4 mps 688 mmHg 44%
    14:00 +22°C° 0 mm 4 mps 687 mmHg 43%
    15:00 +22°C° 0 mm 4 mps 687 mmHg 43%
    16:00 +21°C° 0 mm 3 mps 687 mmHg 47%
    17:00 +19°C° 0 mm 3 mps 686 mmHg 52%
    18:00 +18°C° 0 mm 2 mps 686 mmHg 57%
    19:00 +18°C° 0 mm 2 mps 686 mmHg 57%
    20:00 +18°C° 0 mm 2 mps 686 mmHg 58%
    21:00 +17°C° 0 mm 2 mps 686 mmHg 59%
    22:00 +17°C° 0 mm 2 mps 686 mmHg 60%
    23:00 +17°C° 0 mm 2 mps 686 mmHg 61%
    Show more